Meteo Giornale » Osservazioni meteo Gran Bretagna » Spadeadam

ore: 18:50 - Osservazioni Meteo Spadeadam
Lat. 55° 3' N Lon. 2° 33' W Alt. 325 metri s.l.m.

molto_nuvoloso Europe/London

5 °C

Molto Nuvoloso

Temp. 24 Ore

1 °C

5 °C

Ovest/Sud-Ovest

27.8 Km/h

Dew point 4 °C

Umidità 93 %

Visibilità  10 Km

Il sole sorge alle ore 08:14

Il sole tramonta alle ore 16:29

Data e Ora Cielo e Fenomeni T °C DP °C Um. % Pres. hPa Vis. km Vento km/h
Oggi h: 18:50 molto_nuvoloso Molto Nuvoloso 5 4 93 1010 10 O/SO 27.8
Oggi h: 17:50 foschia Foschia 5 5 100 1009 9 O 33.3
Oggi h: 16:50 foschia Foschia 5 5 100 1008 6 O/SO 35.2
Oggi h: 15:50 foschia Foschia 5 5 100 1007 6 O/SO 31.5
Oggi h: 14:50 coperto_pioggia Pioviggine Leggera 5 5 100 1007 2 O 31.5
Oggi h: 13:50 foschia Foschia 5 5 100 1007 3 O 35.2
Oggi h: 12:50 foschia Foschia 4 4 100 1006 2 O 33.3
Oggi h: 11:50 foschia Foschia 4 4 100 1006 5 O/SO 35.2
Oggi h: 10:50 coperto_pioggia Pioggia Debole 4 4 100 1005 3 O/SO 33.3
Oggi h: 09:50 coperto_pioggia Pioggia Debole 3 3 100 1004 3 O/SO 33.3
Oggi h: 08:50 coperto_pioggia Pioviggine Leggera 3 3 100 1003 2 O/SO 27.8
Oggi h: 07:50 molto_nuvoloso Precipitazioni 3 3 100 1002 5 O/SO 25.9
Oggi h: 06:50 foschia Foschia 3 3 100 1002 5 O/SO 22.2
Oggi h: 05:50 molto_nuvoloso Precipitazioni 3 3 100 1001 5 O/SO 22.2
Oggi h: 04:50 foschia Foschia 3 3 100 1001 7 O 25.9
Oggi h: 03:50 foschia Foschia 3 3 100 1000 6 O 31.5
Oggi h: 02:50 foschia Foschia 3 3 100 1000 7 O 35.2
Oggi h: 01:50 foschia Foschia 3 3 100 1000 8 O 38.8
Oggi h: 00:50 foschia Foschia 3 3 100 1000 4 O 37
Ieri h: 23:50 coperto_neve Grani di Neve 3 3 100 1000 0.25 O 37
Ieri h: 22:50 coperto_neve Grani di Neve 2 2 100 1000 0.1 O 31.5
Ieri h: 21:50 coperto_neve Grani di Neve 1 1 100 1000 0.15 O 22.2
Ieri h: 20:50 coperto_neve Grani di Neve 2 2 100 999 0.1 O 22.2
Ieri h: 19:50 coperto Precipitazioni 2 2 100 999 1 O/SO 27.8
Ieri h: 18:50 foschia Foschia 1 1 100 999 4 N 3.7